GW5304 Weather Reports


time (UTC)temp
F
wind
direction
speed
knots
gust
knots
rain 1hr
in
rain 24hr
in
rain mn
in
humidity
%
barometer
mb
20260507105500 49 242 0.0 0.0 0.00 0.03 0.03 89 1007.5
20260507104957 48 241 0.0 0.9 0.00 0.03 0.03 88 1007.3
20260507104454 49 235 0.0 0.0 0.00 0.03 0.03 88 1007.1
20260507103950 48 229 0.9 1.7 0.00 0.03 0.03 88 1006.8
20260507103447 48 243 0.0 0.0 0.00 0.03 0.03 89 1006.6
20260507102943 48 237 0.0 0.0 0.07 0.03 0.03 89 1006.7
20260507102440 48 266 2.6 2.6 0.07 0.03 0.03 89 1006.8
20260507101936 48 251 0.9 0.9 0.00 0.02 0.02 89 1007.1
20260507101431 48 254 0.9 0.9 0.00 0.02 0.02 90 1006.9
20260507100928 48 246 1.7 1.7 0.00 0.02 0.02 90 1006.6
20260507100426 48 227 0.0 0.9 0.00 0.02 0.02 91 1006.3
20260507095924 48 249 0.9 1.7 0.00 0.02 0.02 91 1006.7
20260507095421 48 264 0.9 0.9 0.00 0.02 0.02 90 1006.6
20260507094918 48 241 0.0 0.9 0.00 0.02 0.02 90 1006.7
20260507094414 49 310 0.9 1.7 0.05 0.02 0.02 89 1006.9
20260507093911 49 278 0.9 0.9 0.05 0.02 0.02 89 1006.7
20260507093409 49 244 0.9 0.9 0.00 0.01 0.01 89 1006.6
20260507092907 49 263 0.9 0.9 0.00 0.01 0.01 90 1006.4
20260507092403 49 244 0.0 0.9 0.00 0.01 0.01 91 1006.8
20260507091900 49 251 0.9 0.9 0.00 0.01 0.01 91 1006.9
20260507091356 50 255 0.0 0.9 0.00 0.01 0.01 91 1006.9
20260507090852 50 247 0.9 0.9 0.00 0.01 0.01 91 1006.8
20260507090348 50 263 0.9 0.9 0.00 0.01 0.01 91 1006.6
20260507085845 49 266 0.9 0.9 0.00 0.01 0.01 91 1006.7
20260507085342 50 249 1.7 1.7 0.00 0.01 0.01 91 1006.8
20260507084840 49 244 0.9 0.9 0.00 0.01 0.01 92 1006.3
20260507084336 50 252 0.9 0.9 0.00 0.01 0.01 92 1006.3
20260507083833 50 250 0.9 0.9 0.00 0.01 0.01 92 1006.4
20260507083330 50 242 0.0 0.0 0.00 0.01 0.01 92 1006.2
20260507082826 50 243 0.0 0.0 0.00 0.01 0.01 92 1006.0
20260507082321 50 262 1.7 1.7 0.00 0.01 0.01 92 1006.1
20260507081819 50 249 1.7 1.7 0.00 0.01 0.01 92 1006.2
20260507081315 50 268 0.0 0.9 0.00 0.01 0.01 92 1006.4
20260507080811 51 245 0.9 1.7 0.07 0.01 0.01 91 1006.6
20260507080308 51 275 2.6 2.6 0.07 0.01 0.01 90 1006.5
20260507075803 51 245 0.0 0.9 0.07 0.01 0.01 88 1006.4
20260507075259 51 313 2.6 2.6 0.00 0.00 0.00 87 1006.2
20260507074756 52 259 0.9 1.7 0.00 0.00 0.00 87 1006.3
20260507074254 51 237 0.9 0.9 0.00 0.00 0.00 87 1006.1
20260507073751 52 252 0.9 0.9 0.00 0.00 0.00 87 1005.8
20260507073247 52 248 0.9 1.7 0.00 0.00 0.00 87 1005.8
20260507072745 52 249 1.7 1.7 0.00 0.00 0.00 87 1005.9
20260507072242 52 281 2.6 2.6 0.00 0.00 0.00 87 1006.0
20260507071740 52 247 0.9 0.9 0.00 0.00 0.00 87 1005.8
20260507071236 52 272 2.6 2.6 0.00 0.00 0.00 86 1005.7
20260507070733 52 269 1.7 1.7 0.00 0.00 0.00 86 1005.6
20260507070230 52 249 0.0 0.0 0.00 0.00 0.00 86 1005.5
20260507065726 52 281 1.7 2.6 0.00 0.00 0.00 86 1005.8
20260507065223 52 257 2.6 2.6 0.00 0.00 0.00 86 1005.7
20260507064721 52 260 0.9 0.9 0.00 0.00 0.00 87 1005.6
20260507064220 52 246 0.9 0.9 0.00 0.00 0.00 88 1005.7
20260507063716 52 249 0.9 0.9 0.00 0.00 0.00 87 1005.7
20260507063213 52 250 0.9 0.9 0.00 0.00 0.00 88 1005.4
20260507062710 53 246 0.9 1.7 0.00 0.00 0.00 89 1005.3
20260507062208 53 290 4.3 6.1 0.00 0.00 0.00 90 1005.6
20260507061705 53 254 0.9 0.9 0.00 0.00 0.00 91 1005.5
20260507061203 53 297 1.7 2.6 0.00 0.00 0.00 92 1005.6
20260507060701 53 309 0.9 0.9 0.00 0.00 0.00 92 1005.6
20260507060157 53 244 0.9 0.9 0.00 0.00 0.00 92 1005.5
20260507055653 54 261 0.9 1.7 0.00 0.00 0.00 93 1005.7
20260507055149 54 245 0.9 0.9 0.00 0.00 0.00 92 1005.6
20260507054645 54 270 3.5 4.3 0.00 0.00 0.00 92 1005.8
20260507054142 54 254 1.7 1.7 0.00 0.00 0.00 92 1005.8
20260507053640 54 255 2.6 2.6 0.00 0.00 0.00 92 1005.7
20260507053138 54 255 1.7 2.6 0.00 0.00 0.00 94 1005.7
20260507052636 54 244 0.9 0.9 0.00 0.00 0.00 95 1005.7
20260507052132 54 240 0.0 0.9 0.00 0.00 0.00 96 1005.6
20260507051630 55 259 3.5 4.3 0.00 0.00 0.00 96 1005.6
20260507051126 56 264 1.7 2.6 0.00 0.00 0.00 97 1005.6
20260507050623 57 275 0.0 0.0 0.00 0.00 0.00 98 1006.0
20260507050120 57 266 1.7 1.7 0.00 0.00 0.00 98 1005.8
20260507045617 57 252 0.9 0.9 0.00 0.00 0.00 98 1005.6
20260507045114 57 275 0.9 1.7 0.00 0.00 0.00 98 1005.4
20260507044610 57 283 1.7 1.7 0.00 0.00 0.00 99 1005.5
20260507044108 58 299 2.6 2.6 0.00 0.00 0.00 99 1005.5
20260507043603 58 243 0.0 0.9 0.00 0.00 0.00 99 1005.4
20260507043101 58 242 0.0 0.0 0.00 0.00 0.00 99 1005.8
20260507042556 58 345 2.6 4.3 0.00 0.00 0.00 99 1005.4
20260507042052 59 236 0.0 0.0 0.00 0.00 0.00 99 1005.5
20260507041549 59 248 0.0 0.0 0.00 0.00 0.00 99 1005.4
20260507041046 59 247 0.0 0.0 0.00 0.00 0.00 99 1005.8
20260507040542 59 241 0.0 0.0 0.00 0.00 0.00 99 1005.6
20260507040038 59 213 0.0 0.0 0.05 0.13 0.13 99 1005.4
20260507035535 59 222 0.0 0.0 0.05 0.13 0.13 99 1005.2
20260507035031 59 243 0.9 0.9 0.00 0.12 0.12 99 1005.3
20260507034528 59 218 1.7 1.7 0.00 0.12 0.12 99 1005.3
20260507034026 59 224 0.9 0.9 0.00 0.12 0.12 99 1005.5
20260507033524 59 196 2.6 2.6 0.00 0.12 0.12 99 1005.4
20260507033021 59 209 0.9 0.9 0.00 0.12 0.12 99 1005.1
20260507032518 59 202 0.9 1.7 0.00 0.12 0.12 99 1005.0
20260507032014 59 221 0.9 0.9 0.00 0.12 0.12 99 1005.0
20260507031510 59 235 0.9 0.9 0.00 0.12 0.12 99 1004.7
20260507031008 59 192 1.7 1.7 0.00 0.12 0.12 99 1004.8
20260507030504 59 212 0.9 1.7 0.00 0.12 0.12 99 1004.7
20260507030002 59 203 0.9 0.9 0.00 0.12 0.12 99 1004.8
20260507025458 59 237 0.9 0.9 0.00 0.12 0.12 99 1004.8
20260507024956 59 213 1.7 1.7 0.00 0.12 0.12 99 1004.8
20260507024453 58 211 1.7 1.7 0.00 0.12 0.12 99 1004.9
20260507023949 58 234 0.9 0.9 0.00 0.12 0.12 99 1004.9
20260507023446 58 195 2.6 4.3 0.00 0.12 0.12 99 1004.9
20260507022943 58 222 2.6 2.6 0.00 0.12 0.12 99 1005.0
20260507022441 58 235 1.7 1.7 0.00 0.12 0.12 99 1005.0
20260507021936 58 185 1.7 1.7 0.00 0.12 0.12 99 1004.7
20260507021431 58 227 0.9 1.7 0.00 0.12 0.12 99 1004.8
20260507020930 58 192 3.5 4.3 0.00 0.12 0.12 99 1005.0
20260507020426 58 182 2.6 2.6 0.00 0.12 0.12 99 1005.0
20260507015923 58 229 1.7 1.7 0.00 0.12 0.12 99 1005.0
20260507015421 58 205 1.7 1.7 0.00 0.12 0.12 99 1005.1
20260507014918 58 215 0.9 1.7 0.00 0.12 0.12 99 1005.0
20260507014414 58 185 0.9 1.7 0.00 0.12 0.12 99 1005.2
20260507013910 58 205 1.7 1.7 0.00 0.12 0.12 99 1005.1
20260507013408 58 189 0.9 1.7 0.00 0.12 0.12 99 1005.2
20260507012905 58 211 2.6 2.6 0.00 0.12 0.12 99 1005.2
20260507012401 58 188 0.9 1.7 0.00 0.12 0.12 99 1005.5
20260507011859 58 189 2.6 2.6 0.00 0.12 0.12 99 1005.3
20260507011355 58 202 0.9 1.7 0.00 0.12 0.12 99 1005.1
20260507010855 57 202 0.0 0.0 0.00 0.12 0.12 99 1005.4
20260507010351 57 171 1.7 1.7 0.00 0.12 0.12 99 1005.3
20260507005848 57 212 0.9 1.7 0.00 0.12 0.12 99 1005.4
20260507005345 57 201 0.9 0.9 0.00 0.12 0.12 99 1005.2
20260507004842 57 209 1.7 1.7 0.00 0.12 0.12 99 1005.3
20260507004339 57 197 1.7 1.7 0.00 0.12 0.12 99 1005.6
20260507003836 57 233 0.0 0.9 0.00 0.12 0.12 99 1005.4
20260507003331 57 194 2.6 2.6 0.00 0.12 0.12 99 1005.3
20260507002826 57 215 1.7 2.6 0.00 0.12 0.12 99 1005.4
20260507002323 57 219 2.6 2.6 0.00 0.12 0.12 99 1005.3
20260507001820 57 196 1.7 1.7 0.00 0.12 0.12 99 1005.2
20260507001317 57 198 1.7 1.7 0.00 0.12 0.12 99 1004.9
20260507000813 57 201 1.7 1.7 0.00 0.12 0.12 99 1004.9
20260507000309 57 201 0.9 1.7 0.00 0.12 0.12 99 1005.1
20260506235806 57 208 0.9 1.7 0.00 0.12 0.12 99 1005.2
20260506235306 57 198 0.9 0.9 0.07 0.12 0.12 99 1005.2
20260506234759 57 228 1.7 1.7 0.12 0.12 0.12 99 1005.1
20260506234256 58 187 2.6 2.6 0.19 0.11 0.11 99 1005.1
20260506233754 58 195 1.7 1.7 0.14 0.10 0.10 99 1005.0
20260506233250 58 208 0.9 0.9 0.07 0.09 0.09 98 1005.1
20260506232747 58 187 1.7 1.7 0.00 0.08 0.08 98 1005.1
20260506232241 58 229 0.9 0.9 0.00 0.08 0.08 98 1005.1
20260506231739 58 206 0.9 1.7 0.00 0.08 0.08 98 1005.3
20260506231238 58 199 2.6 4.3 0.00 0.08 0.08 98 1005.2
20260506230734 59 188 3.5 5.2 0.00 0.08 0.08 98 1005.4
20260506230231 59 203 2.6 2.6 0.00 0.08 0.08 98 1005.3
20260506225727 59 191 1.7 1.7 0.00 0.08 0.08 98 1005.4
20260506225225 59 210 2.6 2.6 0.00 0.08 0.08 98 1005.4
20260506224721 59 183 1.7 1.7 0.00 0.08 0.08 98 1005.2
20260506224218 59 207 0.9 0.9 0.00 0.08 0.08 98 1005.3
20260506223714 59 167 2.6 2.6 0.00 0.08 0.08 98 1005.2
20260506223210 59 224 0.0 0.9 0.00 0.08 0.08 98 1005.4
20260506222707 59 206 0.9 0.9 0.00 0.08 0.08 98 1005.3
20260506222202 60 189 0.9 1.7 0.00 0.08 0.08 97 1005.2
20260506221701 60 205 1.7 1.7 0.00 0.08 0.08 97 1005.4
20260506221159 60 146 0.9 1.7 0.00 0.08 0.08 97 1005.7
20260506220655 60 209 1.7 1.7 0.00 0.08 0.08 97 1005.7
20260506220150 60 180 2.6 2.6 0.00 0.08 0.08 97 1005.9
20260506215647 60 177 2.6 4.3 0.00 0.08 0.08 97 1006.0
20260506215142 60 176 0.9 1.7 0.05 0.08 0.08 97 1005.8
20260506214639 59 206 0.9 0.9 0.05 0.08 0.08 97 1005.9
20260506214137 59 181 0.9 0.9 0.05 0.08 0.08 97 1005.8
20260506213635 59 176 1.7 1.7 0.00 0.07 0.07 97 1006.1
20260506213132 59 213 0.9 0.9 0.00 0.07 0.07 97 1006.0
20260506212629 59 188 1.7 1.7 0.00 0.07 0.07 97 1006.0
20260506212124 59 195 1.7 1.7 0.00 0.07 0.07 97 1006.1
20260506211620 59 206 0.9 1.7 0.00 0.07 0.07 97 1006.0
20260506211117 59 191 0.9 0.9 0.07 0.07 0.07 96 1006.3
20260506210614 59 207 1.7 2.6 0.07 0.07 0.07 96 1006.3
20260506210110 59 209 0.9 0.9 0.05 0.06 0.06 96 1006.3
20260506205607 60 196 1.7 1.7 0.05 0.06 0.06 95 1006.3
20260506205102 60 220 1.7 1.7 0.00 0.05 0.05 94 1006.4
20260506204600 60 226 0.9 0.9 0.12 0.05 0.05 94 1006.3
20260506204057 60 193 1.7 1.7 0.19 0.05 0.05 92 1006.4
20260506203555 61 218 1.7 1.7 0.07 0.03 0.03 91 1006.4
20260506203051 61 229 0.9 1.7 0.05 0.02 0.02 89 1006.3
20260506202549 61 230 2.6 2.6 0.05 0.02 0.02 88 1006.4
20260506202045 62 217 2.6 2.6 0.00 0.01 0.01 88 1006.1
20260506201543 62 200 2.6 2.6 0.00 0.01 0.01 87 1006.0
20260506201039 62 240 0.9 0.9 0.00 0.01 0.01 87 1005.8
20260506200536 62 199 1.7 1.7 0.00 0.01 0.01 87 1006.0
20260506200033 62 211 0.9 0.9 0.00 0.01 0.01 86 1006.1
20260506195529 62 189 1.7 2.6 0.07 0.01 0.01 85 1006.3
20260506195026 63 210 1.7 1.7 0.07 0.01 0.01 84 1006.1
20260506194524 63 189 0.9 1.7 0.00 0.00 0.00 84 1006.5
20260506194020 63 197 0.9 1.7 0.00 0.00 0.00 84 1006.7
20260506193517 64 227 0.0 0.9 0.00 0.00 0.00 83 1006.3
20260506193014 64 207 0.9 0.9 0.00 0.00 0.00 82 1006.3
20260506192511 64 191 1.7 2.6 0.00 0.00 0.00 80 1006.4
20260506192007 65 203 1.7 2.6 0.00 0.00 0.00 79 1006.3
20260506191504 65 204 1.7 2.6 0.00 0.00 0.00 77 1006.2
20260506191000 65 225 1.7 1.7 0.00 0.00 0.00 75 1006.5
20260506190457 65 217 2.6 2.6 0.00 0.00 0.00 75 1006.3
20260506185954 65 236 0.9 1.7 0.00 0.00 0.00 75 1006.2
20260506185451 66 215 1.7 1.7 0.00 0.00 0.00 74 1006.2
20260506184948 66 192 2.6 2.6 0.00 0.00 0.00 72 1006.3
20260506184445 66 256 1.7 2.6 0.00 0.00 0.00 72 1006.1
20260506183942 67 200 3.5 4.3 0.00 0.00 0.00 71 1006.5
20260506183437 67 197 1.7 2.6 0.00 0.00 0.00 70 1006.2
20260506182935 67 203 2.6 4.3 0.00 0.00 0.00 70 1006.6
20260506182432 67 221 0.9 1.7 0.00 0.00 0.00 70 1006.5
20260506181929 67 210 1.7 2.6 0.00 0.00 0.00 70 1006.4
20260506181427 67 172 2.6 2.6 0.00 0.00 0.00 70 1006.6
20260506180924 68 197 1.7 1.7 0.00 0.00 0.00 70 1006.7
20260506180420 68 168 0.9 2.6 0.00 0.00 0.00 69 1006.8
20260506175917 68 185 2.6 4.3 0.00 0.00 0.00 68 1006.8
20260506175413 69 204 2.6 2.6 0.00 0.00 0.00 68 1006.8
20260506174905 68 216 1.7 2.6 0.00 0.00 0.00 68 1007.0
20260506174403 69 209 3.5 7.0 0.00 0.00 0.00 68 1006.7
20260506173859 69 185 1.7 2.6 0.00 0.00 0.00 67 1007.0
20260506173356 69 182 4.3 6.1 0.00 0.00 0.00 66 1006.9
20260506172853 69 40 2.6 4.3 0.00 0.00 0.00 67 1007.0
20260506172349 69 109 2.6 2.6 0.00 0.00 0.00 67 1006.9
20260506171847 68 170 3.5 5.2 0.00 0.00 0.00 69 1007.0
20260506171344 68 209 1.7 2.6 0.00 0.00 0.00 69 1007.0
20260506170841 68 180 2.6 2.6 0.00 0.00 0.00 69 1007.1
20260506170337 68 167 4.3 4.3 0.00 0.00 0.00 69 1007.2
20260506165832 68 180 3.5 4.3 0.00 0.00 0.00 69 1007.3
20260506165329 68 185 1.7 2.6 0.00 0.00 0.00 69 1007.3
20260506164825 68 196 2.6 2.6 0.00 0.00 0.00 69 1007.2
20260506164321 68 201 3.5 5.2 0.00 0.00 0.00 68 1007.4
20260506163819 68 175 2.6 4.3 0.00 0.00 0.00 68 1007.4
20260506163313 69 133 5.2 6.1 0.00 0.00 0.00 67 1007.5
20260506162809 69 151 3.5 4.3 0.00 0.00 0.00 67 1007.4
20260506162307 69 205 1.7 1.7 0.00 0.00 0.00 67 1007.6
20260506161804 69 197 2.6 2.6 0.00 0.00 0.00 67 1007.7
20260506161302 69 191 2.6 4.3 0.00 0.00 0.00 67 1007.8
20260506160759 69 193 3.5 4.3 0.00 0.00 0.00 67 1007.9
20260506160255 69 200 2.6 4.3 0.00 0.00 0.00 67 1007.8
20260506155755 69 224 1.7 1.7 0.00 0.00 0.00 66 1007.9
20260506155251 69 215 1.7 1.7 0.00 0.00 0.00 66 1008.2
20260506153403 71 194 2.6 2.6 0.00 0.00 0.00 65 1008.4
20260506152900 71 182 2.6 2.6 0.00 0.00 0.00 65 1008.3
20260506152357 71 179 0.9 1.7 0.00 0.00 0.00 65 1008.4
20260506151856 70 178 2.6 2.6 0.00 0.00 0.00 66 1008.4
20260506151352 70 159 2.6 2.6 0.00 0.00 0.00 66 1008.6
20260506150850 70 185 2.6 2.6 0.00 0.00 0.00 66 1008.8
20260506150346 69 183 4.3 6.1 0.00 0.00 0.00 67 1009.1
20260506145843 69 192 2.6 2.6 0.00 0.00 0.00 68 1008.6
20260506145340 68 207 3.5 5.2 0.00 0.00 0.00 69 1008.6
20260506144837 68 205 2.6 4.3 0.00 0.00 0.00 69 1008.5
20260506144333 68 196 1.7 4.3 0.00 0.00 0.00 70 1008.5
20260506143832 67 199 1.7 2.6 0.00 0.00 0.00 71 1008.5
20260506143329 67 159 5.2 6.1 0.00 0.00 0.00 71 1008.5
20260506142827 68 185 2.6 4.3 0.00 0.00 0.00 70 1008.6
20260506142325 68 210 0.9 1.7 0.00 0.00 0.00 71 1008.4
20260506141823 68 196 1.7 1.7 0.00 0.00 0.00 72 1008.5
20260506141321 67 191 2.6 2.6 0.00 0.00 0.00 73 1008.7
20260506140818 66 195 3.5 4.3 0.00 0.00 0.00 73 1008.4
20260506140315 67 202 1.7 1.7 0.00 0.00 0.00 74 1008.7
20260506135812 67 195 1.7 1.7 0.00 0.00 0.00 73 1008.6
20260506135308 66 162 1.7 1.7 0.00 0.00 0.00 74 1008.9
20260506134805 66 177 2.6 4.3 0.00 0.00 0.00 74 1008.9
20260506134301 66 199 1.7 1.7 0.00 0.00 0.00 74 1009.1
20260506133758 66 213 0.9 1.7 0.00 0.00 0.00 75 1008.9
20260506133255 66 239 1.7 2.6 0.00 0.00 0.00 75 1009.0
20260506132752 66 193 1.7 1.7 0.00 0.00 0.00 75 1009.0
20260506132249 66 208 2.6 2.6 0.00 0.00 0.00 75 1008.8
20260506131748 65 191 1.7 2.6 0.00 0.00 0.00 76 1008.8
20260506131243 65 197 2.6 4.3 0.00 0.00 0.00 75 1008.8
20260506130740 65 239 0.9 1.7 0.00 0.00 0.00 76 1008.8
20260506130237 66 167 0.9 1.7 0.00 0.00 0.00 75 1009.1
20260506125735 65 176 1.7 2.6 0.00 0.00 0.00 76 1008.6
20260506125233 64 183 4.3 5.2 0.00 0.00 0.00 78 1009.1
20260506124731 63 207 1.7 1.7 0.00 0.00 0.00 80 1009.1
20260506124228 63 191 1.7 1.7 0.00 0.00 0.00 80 1009.1
20260506123725 63 195 1.7 1.7 0.00 0.00 0.00 80 1009.3
20260506123224 63 199 1.7 1.7 0.00 0.00 0.00 80 1009.3
20260506122720 63 182 2.6 2.6 0.00 0.00 0.00 79 1009.1
20260506122218 63 198 2.6 2.6 0.00 0.00 0.00 80 1008.8
20260506121715 62 262 0.9 1.7 0.00 0.00 0.00 81 1009.0
20260506121212 62 189 1.7 2.6 0.00 0.00 0.00 81 1009.0
20260506120710 62 187 3.5 4.3 0.00 0.00 0.00 81 1009.3
20260506120207 62 196 1.7 2.6 0.00 0.00 0.00 81 1009.2
20260506115705 62 209 2.6 4.3 0.00 0.00 0.00 81 1009.2
20260506115203 62 198 2.6 2.6 0.00 0.00 0.00 81 1009.3
20260506114700 62 201 0.9 1.7 0.00 0.00 0.00 81 1009.6
20260506114158 62 165 0.9 1.7 0.00 0.00 0.00 82 1009.5
20260506113656 62 215 2.6 2.6 0.00 0.00 0.00 82 1009.4
20260506113153 62 206 1.7 1.7 0.00 0.00 0.00 81 1009.5
20260506112649 62 201 1.7 1.7 0.00 0.00 0.00 82 1009.4
20260506112147 62 187 2.6 2.6 0.00 0.00 0.00 81 1009.3
20260506111644 61 192 2.6 2.6 0.00 0.00 0.00 82 1009.5
20260506111142 61 202 1.7 1.7 0.00 0.00 0.00 83 1009.4
20260506110639 61 203 1.7 1.7 0.00 0.00 0.00 83 1009.3
20260506110136 61 189 3.5 4.3 0.00 0.00 0.00 83 1009.5
20260506105633 61 211 4.3 5.2 0.00 0.00 0.00 83 1009.4